TITAN 3A DEB (TRUSS), 1000

Orbit data source: Space-Track

TITAN 3A DEB (TRUSS), 1000 is space debris in LEO originally from a launch on Thu, 11 Feb 1965 UTC launched from the Air Force Eastern Test Range (AFETR). Debris objects in space refer to the collection of defunct objects orbiting the Earth. Examples of debris include non-operational satellites, rocket bodies, and fragments generated from explosions, collisions, or faulty payload assembly.

Loading next visibility...
Identifier
1000, 1965-008B
Orbit
LEO
Last TLE update
21 hours ago
Origin
Manufacturer
Martin Marietta
Mission
Spacecraft
Bus & Motor
TRANSTAGE, Unknown motor
Mass
1,950 kg wet, 1,950 kg dry
Launch date (UTC)
1965-02-11 (60 years ago)
Launch vehicle
Unknown
Launch site
Air Force Eastern Test Range (AFETR)
Object type
Payload
Rocket body
Debris
Shape & HBR
Cyl + 2 Nozzle, 4.6 m
Radar Cross Section
14.974 m², Large (>1 m²)

Expand to show TLE details & history

TLE from 21 hours ago
0 TITAN 3A DEB (TRUSS)
1 01000U 65008B   25114.74110735  .00000009  00000-0  23572-4 0  9993
2 01000  32.1436 248.2321 0012181 306.0776  53.8593  9.88890785175936
Epoch: 2025-04-24T17:47Z
Definitive object data (Epoch: 2025-04-24T17:47:11.675Z)
Latitude
-0°
Longitude
128.42526°
Altitude
2,782.845 km
Speed
6.601 km/s
True Right ascension
16h 32m 55s
True Declination
0° 00' 00"
Sunlit
Object was in full shadow at TLE epoch
Visualization TLE readout
Latitude
-26.72546°
Longitude
-0.72114°
Altitude
2,793.11 km
Speed
6.595 km/s
Apparent Right ascension
08h 42m 57s
Apparent Declination
-32° 54' 32"
Sunlit
Object is in daylight
Visualization observer readout
Local Sidereal Time
22:01:57
Azimuth
72.343° E
Elevation
-72.679°
Doppler factor
1
Orbital elements
Apogee altitude
2,804.403 km
Perigee altitude
2,782.06 km
Semi-major axis
9,171.369 km
Eccentricity
0.0012181
Inclination
32.1436°
RAAN
248.2321°
Arg. of periapsis
306.0776°
True anomaly
53.97213°
Mean anomaly
53.8593°
Eccentric anomaly
53.9157°
Mean motion
2.47111 °/min
BSTAR
0.000023572
Orbital period
145.68 mins
Loading maneuver chart data...
Loading SW <> Apogee altitude chart data...
Loading historical data...
Loading historical data...
Loading historical data...
Loading historical data...
Loading historical data...
Loading historical data...
Loading historical data...
Other satellites on launch #8 in the year 1965 (1965-02-11 UTC)

TITAN 3A DEB (TRUSS) Visibility forecast

Observer location: undefined°, undefined°

Span
Click to sort rows by Start time (UTC) header in descending order
Start Az.
Max El. time (UTC)
Max El. Az.
Max El.
End time (UTC)
End Az.
30 mins2025-04-25 16:02:56.766Z265.39° W2025-04-25 16:17:56.766Z193.016° SSW41.557°2025-04-25 16:32:56.766Z114.838° SE
26 mins2025-04-25 18:42:56.766Z268.204° W2025-04-25 18:54:56.766Z212.723° SW31.73°2025-04-25 19:08:56.766Z149.484° SSE
4 mins2025-04-25 21:29:56.766Z230.164° WSW2025-04-25 21:30:56.766Z226.337° WSW10.673°2025-04-25 21:33:56.766Z214.886° SW
9 mins2025-04-26 08:39:56.766Z152.312° SSE2025-04-26 08:43:56.766Z136.737° SSE12.059°2025-04-26 08:48:56.766Z117.36° SE
26 mins2025-04-26 11:07:56.766Z209.857° SW2025-04-26 11:19:56.766Z152.884° SSE32.725°2025-04-26 11:33:56.766Z88.903° E
30 mins2025-04-26 13:42:56.766Z246.71° WSW2025-04-26 13:56:56.766Z178.607° S41.724°2025-04-26 14:12:56.766Z95.397° ESE
|